This demonstration page uses our WeatherBlox Daily Observations layout. Learn more.

Left ArrowRight Arrow

41.86663, -103.66717

Hourly Observations for September 12, 2021

Temp ( °F °C ) Dew Point ( °F °C ) Humidity (%) Winds ( mph kmh ) Pressure ( in mb ) Visibility ( mi km ) Precip ( " mm )
12:53 am 00:53 Clear 70 21.1 52 11.1 53 53 WNW 8 13 29.89 1012 10 16 0.00 0.00
1:53 am 01:53 Clear 69 20.6 52 11.1 55 55 NW 10 17 29.90 1012 10 16 0.00 0.00
2:53 am 02:53 Clear 65 18.3 59 15 81 81 undefined N/A 29.92 1013 10 16 0.00 0.00
3:53 am 03:53 Clear 62 16.7 58 14.4 86 86 NNW 8 13 29.95 1014 10 16 0.00 0.00
4:53 am 04:53 Clear 59 15 56 13.3 90 90 NW 3 6 29.96 1015 10 16 0.00 0.00
5:53 am 05:53 Clear 58 14.4 55 12.8 90 90 Calm 29.98 1015 9 14 0.00 0.00
6:53 am 06:53 Sunny 57 13.9 54 12.2 90 90 Calm 30.02 1017 10 16 0.00 0.00
7:53 am 07:53 Sunny 59 15 56 13.3 90 90 Calm 30.05 1018 7 11 0.00 0.00
8:53 am 08:53 Sunny 65 18.3 56 13.3 73 73 Calm 30.04 1017 10 16 0.00 0.00
9:53 am 09:53 Sunny 67 19.4 55 12.8 66 66 VRB 3 6 30.06 1018 10 16 0.00 0.00
10:53 am 10:53 Sunny 71 21.7 55 12.8 57 57 SE 8 13 30.06 1018 10 16 0.00 0.00
11:53 am 11:53 Sunny 75 23.9 55 12.8 50 50 SSE 9 15 30.04 1017 10 16 0.00 0.00
12:53 pm 12:53 Sunny 76 24.4 54 12.2 47 47 SE 6 9 30.00 1016 10 16 0.00 0.00
1:53 pm 13:53 Sunny 80 26.7 52 11.1 38 38 SE 5 7 29.97 1015 10 16 0.00 0.00
2:53 pm 14:53 Sunny 82 27.8 52 11.1 35 35 VRB 6 9 29.93 1014 10 16 0.00 0.00
3:53 pm 15:53 Sunny 84 28.9 53 11.7 34 34 E 14 22 29.91 1013 10 16 0.00 0.00
4:53 pm 16:53 Sunny 83 28.3 54 12.2 37 37 ESE 17 28 29.91 1013 10 16 0.00 0.00
5:53 pm 17:53 Sunny 81 27.2 48 8.9 32 32 SSE 8 13 29.92 1013 10 16 0.00 0.00
6:53 pm 18:53 Sunny 75 23.9 55 12.8 50 50 E 9 15 29.93 1014 10 16 0.00 0.00
7:53 pm 19:53 Clear 71 21.7 54 12.2 55 55 E 13 20 29.93 1014 10 16 0.00 0.00
8:53 pm 20:53 Clear 68 20 54 12.2 61 61 ESE 13 20 29.93 1014 10 16 0.00 0.00
9:53 pm 21:53 Clear 66 18.9 55 12.8 68 68 ESE 10 17 29.93 1014 10 16 0.00 0.00
10:53 pm 22:53 Clear 64 17.8 56 13.3 75 75 E 8 13 29.92 1013 10 16 0.00 0.00
11:53 pm 23:53 Clear 64 17.8 56 13.3 75 75 ESE 13 20 29.91 1013 10 16 0.00 0.00

Powered by AerisWeather